SL-8 R/B - Orbit

View from above orbital plane
View from above orbital plane
View from above satellite
View from above satellite

Ground track
Ground track

The orbit data is extracted from the following two-line orbital elements,

1 29659U 06060B   13138.80092765  .00039039  00000-0  63704-3 0  9375
2 29659 098.0823 043.6431 0019627 240.9884 150.2287 15.52275547358705
Epoch (UTC): 18 May 2013 19:13:20
Eccentricity: 0.0019627
inclination: 98.0823°
perigee height: 397 km
apogee height: 423 km
right ascension of ascending node: 43.6431°
argument of perigee: 240.9884°
revolutions per day: 15.52275547
mean anomaly at epoch: 150.2287°
orbit number at epoch: 35870

The dashed part of the orbit path shows where the satellite is in the earth's shadow,  

Developed and maintained by Chris Peat, Heavens-Above GmbH. Please read the updated FAQ before sending e-mail. Imprint. DLR